FW4179 Weather Reports


Display with metric or nautical units.
time (UTC)temp
F
wind
direction
speed
MPH
gust
MPH
rain 1hr
in
rain 24hr
in
rain mn
in
humidity
%
barometer
mb
20260905150054 83 279 1.0 4.0 0.00 0.00 0.00 79 1016.3
20260905144558 82 0 0.0 0.0 0.00 0.00 0.00 85 1016.5
20260905143100 79 0 0.0 0.0 0.00 0.00 0.00 88 1016.6
20260905141559 77 0 0.0 0.0 0.00 0.00 0.00 90 1016.6
20260905140107 76 0 0.0 0.0 0.00 0.00 0.00 95 1016.6
20260905134552 75 0 0.0 0.0 0.00 0.00 0.00 96 1016.7
20260905133106 74 0 0.0 0.0 0.00 0.00 0.00 97 1016.6
20260905131607 74 0 0.0 0.0 0.00 0.00 0.00 97 1016.7
20260905130058 73 0 0.0 0.0 0.00 0.00 0.00 98 1017.0
20260905124559 73 0 0.0 0.0 0.00 0.00 0.00 98 1017.0
20260905123050 72 0 0.0 0.0 0.00 0.00 0.00 99 1016.8
20260905121557 72 0 0.0 0.0 0.00 0.00 0.00 99 1016.6
20260905120108 72 0 0.0 0.0 0.00 0.00 0.00 99 1016.5
20260905114601 72 0 0.0 0.0 0.00 0.00 0.00 99 1016.3
20260905113052 72 0 0.0 0.0 0.00 0.00 0.00 99 1016.1
20260905111610 71 0 0.0 0.0 0.00 0.00 0.00 99 1016.0
20260905110100 71 0 0.0 0.0 0.00 0.00 0.00 99 1015.8
20260905104558 71 0 0.0 0.0 0.00 0.00 0.00 99 1015.7
20260905103059 71 0 0.0 0.0 0.00 0.00 0.00 98 1015.6
20260905101605 72 0 0.0 0.0 0.00 0.00 0.00 98 1015.5
20260905100100 72 0 0.0 0.0 0.00 0.00 0.00 98 1015.4
20260905094552 72 0 0.0 0.0 0.00 0.00 0.00 98 1015.2
20260905093058 72 0 0.0 0.0 0.00 0.00 0.00 98 1015.0
20260905091555 73 0 0.0 0.0 0.00 0.00 0.00 98 1015.0
20260905084611 73 0 0.0 0.0 0.00 0.00 0.00 98 1015.2
20260905083052 73 0 0.0 0.0 0.00 0.00 0.00 98 1015.3
20260905081555 73 0 0.0 0.0 0.00 0.00 0.00 98 1015.4
20260905080059 74 0 0.0 0.0 0.00 0.00 0.00 97 1015.4
20260905074559 74 0 0.0 0.0 0.00 0.00 0.00 96 1015.5
20260905073102 74 0 0.0 0.0 0.00 0.00 0.00 95 1015.5
20260905071557 74 0 0.0 0.0 0.00 0.00 0.00 96 1015.5
20260905070105 74 0 0.0 0.0 0.00 0.00 0.00 95 1015.5
20260905064555 74 0 0.0 0.0 0.00 0.00 0.00 96 1015.6
20260905063055 74 0 0.0 0.0 0.00 0.00 0.00 96 1015.7
20260905061556 74 0 0.0 0.0 0.00 0.00 0.00 95 1016.0
20260905060054 75 0 0.0 0.0 0.00 0.00 0.00 95 1016.0
20260905054555 75 0 0.0 0.0 0.00 0.00 0.00 94 1015.9
20260905053140 75 0 0.0 0.0 0.00 0.00 0.00 92 1015.9
20260905051555 76 0 0.0 0.0 0.00 0.00 0.00 92 1016.0
20260905050051 76 0 0.0 0.0 0.00 0.00 0.00 92 1016.0
20260905044601 77 0 0.0 0.0 0.00 0.00 0.00 92 1015.9
20260905043058 77 0 0.0 0.0 0.00 0.00 0.00 91 1016.0
20260905041556 77 0 0.0 0.0 0.00 0.00 0.00 90 1016.2
20260905040104 78 0 0.0 0.0 0.00 0.00 0.00 88 1016.2
20260905034557 78 0 0.0 0.0 0.00 0.00 0.00 87 1016.4
20260905033104 79 0 0.0 0.0 0.00 0.00 0.00 86 1016.4
20260905031600 79 0 0.0 0.0 0.00 0.00 0.00 85 1016.5
20260905030100 80 0 0.0 0.0 0.00 0.00 0.00 84 1016.7
20260905024621 80 0 0.0 3.0 0.00 0.00 0.00 83 1016.5
20260905023123 81 0 0.0 1.0 0.00 0.00 0.00 82 1016.6
20260905021602 81 0 0.0 1.0 0.00 0.00 0.00 82 1016.8
20260905020108 81 0 0.0 0.0 0.00 0.00 0.00 82 1016.7
20260905014616 81 0 0.0 0.0 0.00 0.00 0.00 82 1016.7
20260905013105 82 0 0.0 0.0 0.00 0.00 0.00 81 1016.7
20260905011606 82 0 0.0 0.0 0.00 0.00 0.00 80 1016.6
20260905010058 83 0 0.0 0.0 0.00 0.00 0.00 78 1016.6
20260905004602 83 0 0.0 0.0 0.00 0.00 0.00 76 1016.3
20260905003100 84 0 0.0 0.0 0.00 0.00 0.00 75 1016.1
20260905001557 85 0 0.0 0.0 0.00 0.00 0.00 76 1016.0
20260905000105 86 0 0.0 0.0 0.00 0.00 0.00 76 1016.2
20260904234558 88 0 0.0 0.0 0.00 0.00 0.00 72 1016.1
20260904233059 89 0 0.0 0.0 0.00 0.00 0.00 70 1015.9
20260904231559 90 0 0.0 2.0 0.00 0.00 0.00 68 1015.8
20260904230105 90 149 2.0 5.0 0.00 0.00 0.00 67 1015.7
20260904224605 91 147 3.0 6.0 0.00 0.00 0.00 63 1015.6
20260904223103 92 136 3.0 5.0 0.00 0.00 0.00 63 1015.5
20260904221606 92 140 4.0 8.0 0.00 0.00 0.00 61 1015.5
20260904220059 93 135 3.0 8.0 0.00 0.00 0.00 59 1015.6
20260904214557 94 147 2.0 8.0 0.00 0.00 0.00 58 1015.6
20260904213100 93 137 2.0 7.0 0.00 0.00 0.00 60 1015.4
20260904211603 92 131 4.0 9.0 0.00 0.00 0.00 60 1015.7
20260904210059 92 182 4.0 10.0 0.00 0.00 0.00 61 1015.8
20260904204557 91 107 3.0 9.0 0.00 0.00 0.00 60 1016.0
20260904203100 95 134 5.0 10.0 0.00 0.00 0.00 56 1016.2
20260904201633 98 0 0.0 3.0 0.00 0.00 0.00 52 1016.1
20260904200058 98 0 1.0 5.0 0.00 0.00 0.00 51 1016.0
20260904194609 98 0 0.0 4.0 0.00 0.00 0.00 51 1016.3
20260904193104 98 15 0.0 4.0 0.00 0.00 0.00 51 1016.6
20260904191559 98 338 0.0 4.0 0.00 0.00 0.00 53 1016.9
20260904190059 97 221 0.0 7.0 0.00 0.00 0.00 56 1016.9
20260904184601 96 269 2.0 6.0 0.00 0.00 0.00 55 1017.1
20260904183057 96 0 1.0 7.0 0.00 0.00 0.00 57 1017.3
20260904181556 96 0 1.0 6.0 0.00 0.00 0.00 55 1017.5
20260904180059 96 0 0.0 4.0 0.00 0.00 0.00 54 1017.7
20260904174556 96 94 0.0 4.0 0.00 0.00 0.00 57 1018.0
20260904173120 95 0 1.0 6.0 0.00 0.00 0.00 56 1018.1
20260904171609 95 0 0.0 3.0 0.00 0.00 0.00 56 1018.3
20260904170058 95 88 0.0 3.0 0.00 0.00 0.00 56 1018.4
20260904164559 93 0 0.0 4.0 0.00 0.00 0.00 63 1018.6
20260904163054 93 267 1.0 4.0 0.00 0.00 0.00 64 1018.6
20260904161558 93 0 0.0 6.0 0.00 0.00 0.00 62 1018.8
20260904160101 91 26 0.0 4.0 0.00 0.00 0.00 66 1018.9
20260904154557 91 0 1.0 5.0 0.00 0.00 0.00 66 1018.9
20260904153055 90 0 0.0 3.0 0.00 0.00 0.00 70 1018.9
20260904151614 89 167 0.0 4.0 0.00 0.00 0.00 71 1019.0